Notices

What's New in latest Release from April 7th, 2021:

- Updated Glossary, including Speed of Maximum Gust, and Total Hourly Precipitation

- Updated national and regional climate services offices contacts and prices information

- Addition of station inventory lists for 1981-2010, 1971-2000, and 1961-1990 Normals.

If you haven't already, please take our survey and provide feedback about our website: https://eccc.sondage-survey.ca/f/LanguageSelection.aspx?s=442ca660-fcf1-47c0-95a9-59707d6fd709

Hourly Data Report for October 25, 2003

TORONTO CITY
ONTARIO

43°40'00.000" N
79°24'00.000" W
112.50 m
6158355
71508
XTO

Download Data

Hourly Data (October 2003)
Hourly Data Report for October 25, 2003
TIME
LST
Temp Definition
°C
Dew Point Definition
°C
Rel Hum Definition
%
Precip. Amount Definition
mm

Wind Dir Definition
10's deg

Wind Spd Definition
km/h
Visibility Definition
km
Stn Press Definition
kPa
Hmdx Definition


Wind Chill Definition


Weather Definition


00:00 7.8 5.0 82   LegendMM LegendMM LegendMM 100.90     LegendNANA
01:00 7.9 5.3 84   LegendMM LegendMM LegendMM 100.88     LegendNANA
02:00 8.4 5.6 83   LegendMM LegendMM LegendMM 100.91     LegendNANA
03:00 8.3 5.4 82   LegendMM LegendMM LegendMM 100.85     LegendNANA
04:00 8.0 4.9 81   LegendMM LegendMM LegendMM 100.75     LegendNANA
05:00 7.6 5.0 84   LegendMM LegendMM LegendMM 100.80     LegendNANA
06:00 7.7 4.9 82   LegendMM LegendMM LegendMM 100.69     LegendNANA
07:00 7.8 4.4 79   LegendMM LegendMM LegendMM 100.65     LegendNANA
08:00 8.1 4.3 77   LegendMM LegendMM LegendMM 100.66     LegendNANA
09:00 8.6 4.6 76   LegendMM LegendMM LegendMM 100.66     LegendNANA
10:00 8.7 5.0 78   LegendMM LegendMM LegendMM 100.54     LegendNANA
11:00 8.6 5.5 81   LegendMM LegendMM LegendMM 100.54     LegendNANA
12:00 9.8 6.0 77   LegendMM LegendMM LegendMM 100.50     LegendNANA
13:00 10.6 5.8 72   LegendMM LegendMM LegendMM 100.52     LegendNANA
14:00 11.3 6.3 71   LegendMM LegendMM LegendMM 100.55     LegendNANA
15:00 11.1 6.4 73   LegendMM LegendMM LegendMM 100.60     LegendNANA
16:00 10.7 6.3 74   LegendMM LegendMM LegendMM 100.63     LegendNANA
17:00 10.4 6.8 78   LegendMM LegendMM LegendMM 100.75     LegendNANA
18:00 9.6 6.2 79   LegendMM LegendMM LegendMM 100.78     LegendNANA
19:00 9.4 6.0 79   LegendMM LegendMM LegendMM 100.80     LegendNANA
20:00 9.2 6.0 80   LegendMM LegendMM LegendMM 100.82     LegendNANA
21:00 9.1 6.4 83   LegendMM LegendMM LegendMM 100.82     LegendNANA
22:00 9.4 6.7 83   LegendMM LegendMM LegendMM 100.78     LegendNANA
23:00 9.2 7.2 87   LegendMM LegendMM LegendMM 100.71     LegendNANA

Notes on Data Quality.

Legend

  • E = Estimated
  • M = Missing
  • NA = Not Available*
  • [empty] = Indicates an unobserved value
Date modified: